FIN52V EFHK-EBBR

Flight info

Callsign FIN52V
Flight time 2h 21m
Altitude 34000
Route NUNTO Y369 REKDO DCT KOSKA DCT KOKOR DCT KEGAB DCT MAWEQ Y348 DOMEG/N0401F240 N853 IRBUP Z717 NEREL T855 AGENI/N0367F180 T855 BATTY
Aircraft A321/M-SADE1E2E3FGIJ1M3RWXYZ/LB1

Departure

Time 2026-04-26 06:05
Airport Helsinki Vantaa Airport (EFHK)

Arrival

Time 2026-04-26 08:27
Airport Brussels Airport (EBBR)
Time Latitude Longitude Altitude Speed Heading
2026-04-26 05:27 60.31782 24.96263 172 ft 0 kts 137°
2026-04-26 05:54 60.31783 24.96260 172 ft 2 kts 137°
2026-04-26 05:54 60.31804 24.96230 172 ft 4 kts 155°
2026-04-26 05:55 60.31829 24.96217 172 ft 4 kts 185°
2026-04-26 05:55 60.31849 24.96234 172 ft 4 kts 239°
2026-04-26 05:55 60.31853 24.96253 172 ft 1 kts 267°
2026-04-26 05:57 60.31853 24.96251 172 ft 1 kts 267°
2026-04-26 05:57 60.31853 24.96220 156 ft 4 kts 278°
2026-04-26 05:57 60.31866 24.96160 172 ft 6 kts 304°
2026-04-26 05:57 60.31898 24.96088 172 ft 8 kts 314°
2026-04-26 05:58 60.31926 24.95984 174 ft 10 kts 260°
2026-04-26 05:58 60.31887 24.95866 175 ft 11 kts 227°
2026-04-26 05:58 60.31832 24.95746 175 ft 12 kts 228°
2026-04-26 05:58 60.31777 24.95625 175 ft 12 kts 227°
2026-04-26 05:59 60.31724 24.95509 176 ft 11 kts 228°
2026-04-26 05:59 60.31668 24.95386 176 ft 13 kts 227°
2026-04-26 05:59 60.31601 24.95238 175 ft 15 kts 227°
2026-04-26 05:59 60.31521 24.95061 175 ft 19 kts 227°
2026-04-26 06:00 60.31425 24.94851 171 ft 20 kts 228°
2026-04-26 06:00 60.31340 24.94663 167 ft 20 kts 227°
2026-04-26 06:00 60.31245 24.94454 164 ft 18 kts 227°
2026-04-26 06:00 60.31153 24.94253 163 ft 19 kts 227°
2026-04-26 06:01 60.31076 24.94082 163 ft 16 kts 228°
2026-04-26 06:01 60.31033 24.93940 164 ft 13 kts 263°
2026-04-26 06:01 60.31042 24.93843 164 ft 0 kts 302°
2026-04-26 06:03 60.31044 24.93837 164 ft 2 kts 302°
2026-04-26 06:03 60.31063 24.93787 164 ft 6 kts 314°
2026-04-26 06:04 60.31105 24.93713 163 ft 10 kts 320°
2026-04-26 06:04 60.31175 24.93740 164 ft 15 kts 47°
2026-04-26 06:04 60.31343 24.94108 166 ft 66 kts 46°
2026-04-26 06:04 60.31793 24.95098 180 ft 123 kts 46°
2026-04-26 06:05 60.32479 24.96605 221 ft 164 kts 41°
2026-04-26 06:05 60.33243 24.98278 818 ft 161 kts 36°
2026-04-26 06:05 60.34014 24.99888 1553 ft 160 kts 37°
2026-04-26 06:05 60.34810 25.01633 1855 ft 176 kts 38°
2026-04-26 06:06 60.35644 25.03551 2236 ft 189 kts 38°
2026-04-26 06:06 60.36580 25.05638 2476 ft 210 kts 39°
2026-04-26 06:06 60.37586 25.07896 2954 ft 220 kts 40°
2026-04-26 06:06 60.38620 25.10215 3620 ft 222 kts 39°
2026-04-26 06:07 60.39809 25.12135 4289 ft 217 kts 22°
2026-04-26 06:07 60.41241 25.12983 4939 ft 216 kts
2026-04-26 06:07 60.42752 25.13052 5596 ft 219 kts 359°
2026-04-26 06:07 60.44282 25.13032 6241 ft 222 kts
2026-04-26 06:08 60.45839 25.13046 6834 ft 226 kts
2026-04-26 06:08 60.47426 25.12827 7379 ft 232 kts 349°
2026-04-26 06:08 60.48934 25.11514 7914 ft 243 kts 329°
2026-04-26 06:08 60.50117 25.08988 8467 ft 256 kts 308°
2026-04-26 06:09 60.50725 25.05506 9127 ft 271 kts 285°
2026-04-26 06:09 60.50788 25.01613 9721 ft 281 kts 277°
2026-04-26 06:09 60.50755 24.97560 10003 ft 295 kts 276°
2026-04-26 06:09 60.50731 24.93294 10227 ft 310 kts 276°
2026-04-26 06:10 60.50579 24.88802 10431 ft 331 kts 264°
2026-04-26 06:10 60.49691 24.84318 10631 ft 356 kts 241°
2026-04-26 06:10 60.48111 24.80369 11117 ft 364 kts 232°
2026-04-26 06:10 60.46407 24.76562 11711 ft 366 kts 231°
2026-04-26 06:11 60.44701 24.72715 12307 ft 367 kts 232°
2026-04-26 06:11 60.43004 24.68827 12868 ft 370 kts 232°
2026-04-26 06:11 60.41309 24.64904 13462 ft 371 kts 232°
2026-04-26 06:11 60.39609 24.60963 13981 ft 373 kts 232°
2026-04-26 06:12 60.37906 24.57005 14503 ft 374 kts 232°
2026-04-26 06:12 60.36215 24.53088 15015 ft 376 kts 231°
2026-04-26 06:12 60.34488 24.49087 15514 ft 378 kts 230°
2026-04-26 06:12 60.32762 24.45088 16078 ft 378 kts 230°
2026-04-26 06:13 60.31036 24.41097 16619 ft 378 kts 229°
2026-04-26 06:13 60.29298 24.37091 17131 ft 380 kts 229°
2026-04-26 06:13 60.27551 24.33075 17608 ft 382 kts 229°
2026-04-26 06:13 60.25791 24.29034 18046 ft 385 kts 228°
2026-04-26 06:14 60.24021 24.24980 18446 ft 386 kts 229°
2026-04-26 06:14 60.22242 24.20909 18842 ft 389 kts 229°
2026-04-26 06:14 60.20442 24.16800 19190 ft 393 kts 229°
2026-04-26 06:14 60.18630 24.12670 19580 ft 395 kts 229°
2026-04-26 06:15 60.16803 24.08509 19960 ft 398 kts 229°
2026-04-26 06:15 60.14967 24.04338 20316 ft 401 kts 229°
2026-04-26 06:15 60.13114 24.00131 20657 ft 404 kts 230°
2026-04-26 06:15 60.11247 23.95905 21000 ft 406 kts 230°
2026-04-26 06:16 60.09366 23.91640 21329 ft 409 kts 232°
2026-04-26 06:16 60.07718 23.87009 21621 ft 409 kts 243°
2026-04-26 06:16 60.06367 23.81989 21949 ft 411 kts 246°
2026-04-26 06:16 60.05056 23.76894 22286 ft 413 kts 246°
2026-04-26 06:17 60.03731 23.71766 22650 ft 415 kts 245°
2026-04-26 06:17 60.02393 23.66634 22987 ft 418 kts 245°
2026-04-26 06:17 60.01038 23.61472 23321 ft 420 kts 245°
2026-04-26 06:17 59.99668 23.56287 23571 ft 423 kts 245°
2026-04-26 06:18 59.98291 23.51093 23833 ft 424 kts 245°
2026-04-26 06:18 59.96904 23.45874 24091 ft 427 kts 245°
2026-04-26 06:18 59.95510 23.40631 24349 ft 429 kts 245°
2026-04-26 06:18 59.94104 23.35358 24603 ft 431 kts 245°
2026-04-26 06:19 59.92694 23.30086 24862 ft 433 kts 245°
2026-04-26 06:19 59.91957 23.27341 24993 ft 434 kts 245°
2026-04-26 06:19 59.90513 23.21954 25238 ft 436 kts 245°
2026-04-26 06:19 59.89095 23.16683 25474 ft 438 kts 245°
2026-04-26 06:20 59.87631 23.11253 25698 ft 441 kts 246°
2026-04-26 06:20 59.86175 23.05863 25912 ft 443 kts 246°
2026-04-26 06:20 59.84728 23.00517 26145 ft 445 kts 246°
2026-04-26 06:20 59.83254 22.95087 26348 ft 447 kts 246°
2026-04-26 06:21 59.81755 22.89583 26569 ft 450 kts 247°
2026-04-26 06:21 59.80278 22.84160 26791 ft 452 kts 247°
2026-04-26 06:21 59.78777 22.78671 26994 ft 454 kts 247°
2026-04-26 06:21 59.77265 22.73158 27221 ft 456 kts 247°
2026-04-26 06:22 59.75744 22.67625 27429 ft 458 kts 247°
2026-04-26 06:22 59.74216 22.62075 27640 ft 460 kts 247°
2026-04-26 06:22 59.72679 22.56511 27869 ft 462 kts 247°
2026-04-26 06:22 59.71130 22.50926 28068 ft 464 kts 247°
2026-04-26 06:23 59.69573 22.45315 28271 ft 465 kts 247°
2026-04-26 06:23 59.68007 22.39690 28460 ft 467 kts 247°
2026-04-26 06:23 59.66436 22.34051 28657 ft 469 kts 247°
2026-04-26 06:23 59.64856 22.28398 28859 ft 470 kts 247°
2026-04-26 06:24 59.63269 22.22734 29093 ft 471 kts 247°
2026-04-26 06:24 59.61682 22.17091 29350 ft 471 kts 247°
2026-04-26 06:24 59.60086 22.11428 29606 ft 471 kts 247°
2026-04-26 06:24 59.58494 22.05784 29847 ft 471 kts 247°
2026-04-26 06:25 59.56895 22.00133 30047 ft 471 kts 247°
2026-04-26 06:25 59.55295 21.94493 30202 ft 472 kts 248°
2026-04-26 06:25 59.53693 21.88856 30383 ft 472 kts 248°
2026-04-26 06:25 59.52081 21.83213 30586 ft 472 kts 248°
2026-04-26 06:26 59.50474 21.77592 30784 ft 471 kts 248°
2026-04-26 06:26 59.48865 21.71974 31003 ft 471 kts 248°
2026-04-26 06:26 59.47254 21.66362 31207 ft 471 kts 248°
2026-04-26 06:26 59.45641 21.60759 31380 ft 471 kts 248°
2026-04-26 06:27 59.44022 21.55155 31570 ft 471 kts 248°
2026-04-26 06:27 59.42405 21.49564 31757 ft 471 kts 248°
2026-04-26 06:27 59.40787 21.43979 31937 ft 471 kts 248°
2026-04-26 06:27 59.39162 21.38383 32130 ft 471 kts 248°
2026-04-26 06:28 59.37540 21.32810 32311 ft 471 kts 247°
2026-04-26 06:28 59.35913 21.27236 32486 ft 471 kts 247°
2026-04-26 06:28 59.34283 21.21663 32664 ft 471 kts 247°
2026-04-26 06:28 59.32651 21.16098 32829 ft 471 kts 247°
2026-04-26 06:29 59.31016 21.10534 32964 ft 471 kts 248°
2026-04-26 06:29 59.29384 21.04995 33092 ft 471 kts 248°
2026-04-26 06:29 59.27762 20.99504 33300 ft 471 kts 248°
2026-04-26 06:29 59.26124 20.93971 33482 ft 470 kts 248°
2026-04-26 06:30 59.24464 20.88379 33656 ft 470 kts 248°
2026-04-26 06:30 59.22825 20.82866 33807 ft 469 kts 248°
2026-04-26 06:30 59.21203 20.77426 33905 ft 470 kts 248°
2026-04-26 06:31 59.17762 20.66473 33897 ft 477 kts 240°
2026-04-26 06:31 59.13501 20.56459 33885 ft 481 kts 237°
2026-04-26 06:32 59.09198 20.46583 33877 ft 482 kts 238°
2026-04-26 06:32 59.04836 20.36556 33891 ft 483 kts 238°
2026-04-26 06:33 59.00530 20.26688 33896 ft 483 kts 238°
2026-04-26 06:33 58.96180 20.16765 33912 ft 483 kts 238°
2026-04-26 06:34 58.91818 20.06874 33917 ft 483 kts 238°
2026-04-26 06:34 58.87453 19.97017 33886 ft 482 kts 239°
2026-04-26 06:35 58.83792 19.88769 33917 ft 483 kts 239°
2026-04-26 06:35 58.79415 19.78942 33935 ft 483 kts 238°
2026-04-26 06:36 58.75025 19.69136 33944 ft 483 kts 238°
2026-04-26 06:36 58.70630 19.59350 33945 ft 483 kts 238°
2026-04-26 06:37 58.66224 19.49586 33925 ft 483 kts 239°
2026-04-26 06:37 58.61829 19.39877 33955 ft 482 kts 239°
2026-04-26 06:38 58.57452 19.30252 33976 ft 482 kts 238°
2026-04-26 06:38 58.53039 19.20594 33967 ft 482 kts 238°
2026-04-26 06:39 58.48611 19.10944 33976 ft 482 kts 238°
2026-04-26 06:39 58.44183 19.01331 33960 ft 482 kts 239°
2026-04-26 06:40 58.39764 18.91783 33979 ft 478 kts 239°
2026-04-26 06:40 58.35370 18.82357 33994 ft 476 kts 238°
2026-04-26 06:41 58.30859 18.73081 34000 ft 477 kts 238°
2026-04-26 06:41 58.26429 18.63730 34000 ft 475 kts 239°
2026-04-26 06:42 58.22131 18.54260 33983 ft 473 kts 240°
2026-04-26 06:42 58.17803 18.44884 34004 ft 472 kts 239°
2026-04-26 06:43 58.13410 18.35604 34017 ft 473 kts 239°
2026-04-26 06:43 58.09033 18.26413 34017 ft 473 kts 239°
2026-04-26 06:44 58.04619 18.17176 34028 ft 473 kts 239°
2026-04-26 06:44 58.00203 18.07968 34004 ft 473 kts 239°
2026-04-26 06:45 57.95796 17.98792 34032 ft 470 kts 240°
2026-04-26 06:45 57.91502 17.89518 34041 ft 471 kts 240°
2026-04-26 06:46 57.87111 17.80359 34047 ft 472 kts 239°
2026-04-26 06:46 57.82678 17.71268 34060 ft 472 kts 239°
2026-04-26 06:47 57.78156 17.62295 34028 ft 474 kts 238°
2026-04-26 06:47 57.73649 17.53367 34054 ft 469 kts 239°
2026-04-26 06:48 57.69226 17.44408 34060 ft 469 kts 239°
2026-04-26 06:48 57.64792 17.35442 34072 ft 469 kts 239°
2026-04-26 06:49 57.60352 17.26506 34079 ft 470 kts 239°
2026-04-26 06:49 57.55905 17.17589 34080 ft 470 kts 239°
2026-04-26 06:50 57.51447 17.08687 34086 ft 470 kts 239°
2026-04-26 06:50 57.46985 16.99813 34040 ft 469 kts 239°
2026-04-26 06:51 57.42556 16.91038 34091 ft 467 kts 239°
2026-04-26 06:51 57.35886 16.77880 34097 ft 467 kts 239°
2026-04-26 06:52 57.31438 16.69150 34094 ft 465 kts 239°
2026-04-26 06:52 57.26994 16.60460 34116 ft 465 kts 239°
2026-04-26 06:53 57.22543 16.51786 34122 ft 465 kts 239°
2026-04-26 06:53 57.18082 16.43128 34121 ft 466 kts 239°
2026-04-26 06:54 57.13616 16.34492 34128 ft 466 kts 239°
2026-04-26 06:54 57.09145 16.25882 34119 ft 464 kts 239°
2026-04-26 06:55 57.04684 16.17321 34134 ft 464 kts 239°
2026-04-26 06:55 57.00217 16.08779 34071 ft 464 kts 239°
2026-04-26 06:56 56.95749 16.00270 34131 ft 462 kts 239°
2026-04-26 06:56 56.91292 15.91810 34145 ft 462 kts 239°
2026-04-26 06:57 56.86826 15.83365 34140 ft 461 kts 239°
2026-04-26 06:57 56.82364 15.74959 34157 ft 461 kts 239°
2026-04-26 06:58 56.78238 15.66237 34171 ft 453 kts 244°
2026-04-26 06:58 56.73995 15.57626 34171 ft 460 kts 240°
2026-04-26 06:59 56.69524 15.49253 34184 ft 462 kts 239°
2026-04-26 06:59 56.65025 15.40923 34162 ft 461 kts 239°
2026-04-26 07:00 56.60159 15.33071 34183 ft 469 kts 234°
2026-04-26 07:00 56.55456 15.25026 34184 ft 462 kts 238°
2026-04-26 07:01 56.50943 15.16740 34141 ft 461 kts 238°
2026-04-26 07:01 56.46455 15.08507 34179 ft 459 kts 238°
2026-04-26 07:02 56.41969 15.00315 34169 ft 458 kts 238°
2026-04-26 07:02 56.37480 14.92155 34210 ft 457 kts 238°
2026-04-26 07:03 56.33020 14.84078 34219 ft 458 kts 238°
2026-04-26 07:03 56.28520 14.75959 34217 ft 458 kts 238°
2026-04-26 07:04 56.24013 14.67870 34218 ft 458 kts 238°
2026-04-26 07:04 56.19507 14.59800 34204 ft 457 kts 237°
2026-04-26 07:05 56.15004 14.51750 34225 ft 457 kts 237°
2026-04-26 07:05 56.10497 14.43725 34237 ft 457 kts 237°
2026-04-26 07:06 56.05981 14.35716 34246 ft 457 kts 237°
2026-04-26 07:06 56.01459 14.27730 34237 ft 456 kts 237°
2026-04-26 07:07 55.96965 14.19818 34251 ft 451 kts 237°
2026-04-26 07:07 55.92499 14.11972 34258 ft 451 kts 236°
2026-04-26 07:08 55.88020 14.04134 34251 ft 451 kts 236°
2026-04-26 07:08 55.83533 13.96311 34248 ft 451 kts 236°
2026-04-26 07:09 55.79033 13.88525 34252 ft 452 kts 236°
2026-04-26 07:09 55.74539 13.80747 34246 ft 451 kts 236°
2026-04-26 07:11 55.63316 13.61434 34260 ft 451 kts 236°
2026-04-26 07:11 55.58800 13.53711 34265 ft 451 kts 235°
2026-04-26 07:12 55.54282 13.46037 34211 ft 453 kts 232°
2026-04-26 07:12 55.49443 13.38849 34247 ft 444 kts 236°
2026-04-26 07:13 55.45176 13.31003 34259 ft 443 kts 237°
2026-04-26 07:13 55.40836 13.23237 34258 ft 446 kts 234°
2026-04-26 07:14 55.36356 13.15650 34275 ft 447 kts 234°
2026-04-26 07:14 55.31857 13.08106 34273 ft 447 kts 234°
2026-04-26 07:15 55.27352 13.00569 34284 ft 447 kts 234°
2026-04-26 07:15 55.22842 12.93045 34283 ft 447 kts 234°
2026-04-26 07:16 55.18329 12.85540 34292 ft 447 kts 234°
2026-04-26 07:16 55.13815 12.78060 34279 ft 448 kts 234°
2026-04-26 07:17 55.09285 12.70579 34267 ft 447 kts 233°
2026-04-26 07:17 55.04777 12.63157 34265 ft 444 kts 232°
2026-04-26 07:18 55.00282 12.55816 34283 ft 444 kts 232°
2026-04-26 07:18 54.95753 12.48501 34289 ft 444 kts 232°
2026-04-26 07:19 54.91253 12.41185 34285 ft 443 kts 232°
2026-04-26 07:19 54.86753 12.33887 34267 ft 442 kts 232°
2026-04-26 07:20 54.82254 12.26610 34289 ft 442 kts 232°
2026-04-26 07:20 54.77748 12.19346 34297 ft 442 kts 231°
2026-04-26 07:21 54.73240 12.12100 34299 ft 442 kts 231°
2026-04-26 07:21 54.68731 12.04873 34297 ft 442 kts 231°
2026-04-26 07:22 54.64249 11.97710 34289 ft 441 kts 231°
2026-04-26 07:22 54.59747 11.90542 34280 ft 440 kts 231°
2026-04-26 07:23 54.55256 11.83418 34302 ft 436 kts 230°
2026-04-26 07:23 54.50787 11.76343 34311 ft 437 kts 230°
2026-04-26 07:24 54.47032 11.70415 34306 ft 437 kts 230°
2026-04-26 07:24 54.42527 11.63408 34287 ft 437 kts 229°
2026-04-26 07:25 54.37990 11.56455 34310 ft 437 kts 229°
2026-04-26 07:25 54.33488 11.49559 34306 ft 437 kts 229°
2026-04-26 07:26 54.28956 11.42634 34317 ft 437 kts 229°
2026-04-26 07:26 54.24420 11.35715 34315 ft 437 kts 229°
2026-04-26 07:27 54.19884 11.28823 34296 ft 436 kts 228°
2026-04-26 07:27 54.15347 11.21949 34321 ft 436 kts 228°
2026-04-26 07:28 54.10807 11.15098 34291 ft 436 kts 228°
2026-04-26 07:28 54.06280 11.08291 34319 ft 432 kts 227°
2026-04-26 07:29 54.01768 11.01518 34329 ft 433 kts 227°
2026-04-26 07:29 53.97254 10.94765 34330 ft 432 kts 227°
2026-04-26 07:30 53.92734 10.88023 34338 ft 432 kts 227°
2026-04-26 07:30 53.88214 10.81299 34350 ft 432 kts 227°
2026-04-26 07:31 53.83690 10.74588 34350 ft 432 kts 227°
2026-04-26 07:31 53.79167 10.67893 34348 ft 432 kts 226°
2026-04-26 07:32 53.74635 10.61222 34333 ft 432 kts 226°
2026-04-26 07:32 53.70098 10.54561 34343 ft 432 kts 226°
2026-04-26 07:33 53.65559 10.47904 34342 ft 432 kts 226°
2026-04-26 07:33 53.61013 10.41273 34342 ft 432 kts 226°
2026-04-26 07:34 53.56481 10.34684 34338 ft 429 kts 225°
2026-04-26 07:34 53.51965 10.28126 34349 ft 429 kts 225°
2026-04-26 07:35 53.47453 10.21591 34341 ft 428 kts 225°
2026-04-26 07:35 53.42937 10.15062 34348 ft 428 kts 225°
2026-04-26 07:36 53.38446 10.08592 34345 ft 429 kts 225°
2026-04-26 07:36 53.33927 10.02101 34336 ft 428 kts 224°
2026-04-26 07:37 53.29403 9.95624 34328 ft 428 kts 224°
2026-04-26 07:37 53.24872 9.89157 34339 ft 428 kts 224°
2026-04-26 07:38 53.20334 9.82700 34350 ft 428 kts 224°
2026-04-26 07:38 53.15803 9.76268 34338 ft 428 kts 224°
2026-04-26 07:39 53.11263 9.69846 34346 ft 428 kts 224°
2026-04-26 07:39 53.06720 9.63452 34342 ft 428 kts 224°
2026-04-26 07:40 53.02177 9.57070 34336 ft 428 kts 224°
2026-04-26 07:40 52.97623 9.50697 34344 ft 428 kts 224°
2026-04-26 07:41 52.93075 9.44331 34346 ft 428 kts 224°
2026-04-26 07:41 52.88459 9.38083 34344 ft 429 kts 222°
2026-04-26 07:42 52.83806 9.31906 34349 ft 429 kts 221°
2026-04-26 07:42 52.79174 9.25776 34347 ft 430 kts 221°
2026-04-26 07:43 52.74507 9.19602 34346 ft 429 kts 221°
2026-04-26 07:43 52.69838 9.13455 34348 ft 429 kts 221°
2026-04-26 07:44 52.65165 9.07318 34344 ft 429 kts 221°
2026-04-26 07:44 52.60493 9.01198 34347 ft 429 kts 220°
2026-04-26 07:45 52.55819 8.95107 34351 ft 428 kts 220°
2026-04-26 07:45 52.51146 8.89031 34351 ft 428 kts 220°
2026-04-26 07:46 52.46473 8.82964 34349 ft 428 kts 220°
2026-04-26 07:46 52.41793 8.76904 34342 ft 428 kts 220°
2026-04-26 07:47 52.37121 8.70875 34349 ft 428 kts 220°
2026-04-26 07:47 52.32439 8.64850 34350 ft 428 kts 220°
2026-04-26 07:48 52.27806 8.58842 34350 ft 427 kts 223°
2026-04-26 07:48 52.23711 8.51862 34352 ft 426 kts 229°
2026-04-26 07:49 52.19747 8.44686 34349 ft 427 kts 229°
2026-04-26 07:49 52.15748 8.37517 34352 ft 427 kts 228°
2026-04-26 07:50 52.09739 8.26810 34351 ft 426 kts 228°
2026-04-26 07:50 52.05739 8.19699 34355 ft 426 kts 228°
2026-04-26 07:51 52.01732 8.12596 34352 ft 426 kts 228°
2026-04-26 07:51 51.97717 8.05502 34350 ft 427 kts 227°
2026-04-26 07:52 51.93690 7.98405 34354 ft 428 kts 227°
2026-04-26 07:52 51.89652 7.91321 34352 ft 428 kts 227°
2026-04-26 07:53 51.85609 7.84243 34351 ft 428 kts 227°
2026-04-26 07:53 51.81561 7.77168 34353 ft 428 kts 227°
2026-04-26 07:54 51.77520 7.70129 34345 ft 428 kts 227°
2026-04-26 07:54 51.73452 7.63093 34354 ft 429 kts 225°
2026-04-26 07:55 51.68604 7.57565 34349 ft 430 kts 204°
2026-04-26 07:55 51.62907 7.54564 34348 ft 431 kts 198°
2026-04-26 07:56 51.57164 7.51774 34347 ft 431 kts 198°
2026-04-26 07:56 51.51570 7.48332 34347 ft 431 kts 211°
2026-04-26 07:57 51.49148 7.45505 34353 ft 431 kts 223°
2026-04-26 07:57 51.47157 7.41925 34353 ft 431 kts 234°
2026-04-26 07:57 51.44241 7.33546 34354 ft 431 kts 242°
2026-04-26 07:58 51.41212 7.25292 34352 ft 430 kts 234°
2026-04-26 07:58 51.37640 7.17593 34351 ft 430 kts 233°
2026-04-26 07:59 51.34047 7.09923 34346 ft 432 kts 233°
2026-04-26 07:59 51.30433 7.02210 34368 ft 434 kts 233°
2026-04-26 08:00 51.26814 6.94496 34375 ft 434 kts 233°
2026-04-26 08:00 51.23189 6.86787 34377 ft 434 kts 233°
2026-04-26 08:01 51.19559 6.79097 34379 ft 434 kts 233°
2026-04-26 08:01 51.15927 6.71423 34375 ft 434 kts 233°
2026-04-26 08:02 51.12280 6.63749 34362 ft 435 kts 233°
2026-04-26 08:02 51.08577 6.56124 34367 ft 436 kts 229°
2026-04-26 08:03 51.04312 6.49251 34364 ft 437 kts 225°
2026-04-26 08:03 50.99997 6.42474 34363 ft 436 kts 226°
2026-04-26 08:04 50.95691 6.35694 34354 ft 436 kts 226°
2026-04-26 08:04 50.91396 6.28948 33934 ft 434 kts 225°
2026-04-26 08:05 50.89250 6.25585 33441 ft 432 kts 225°
2026-04-26 08:05 50.87147 6.22290 32908 ft 430 kts 225°
2026-04-26 08:05 50.84994 6.18928 32359 ft 429 kts 225°
2026-04-26 08:05 50.82874 6.15612 31814 ft 427 kts 225°
2026-04-26 08:06 50.80790 6.12358 31279 ft 426 kts 225°
2026-04-26 08:06 50.78657 6.09038 30756 ft 424 kts 225°
2026-04-26 08:06 50.76557 6.05775 30243 ft 422 kts 225°
2026-04-26 08:06 50.74514 6.02462 29643 ft 420 kts 229°
2026-04-26 08:07 50.72603 5.98999 29105 ft 417 kts 230°
2026-04-26 08:07 50.70744 5.95579 28568 ft 414 kts 231°
2026-04-26 08:07 50.68868 5.92080 28040 ft 410 kts 233°
2026-04-26 08:07 50.67412 5.88268 27539 ft 405 kts 248°
2026-04-26 08:08 50.66723 5.84072 27016 ft 400 kts 265°
2026-04-26 08:08 50.66858 5.79731 26504 ft 396 kts 282°
2026-04-26 08:08 50.67752 5.75657 26019 ft 393 kts 295°
2026-04-26 08:08 50.68998 5.71834 25534 ft 391 kts 297°
2026-04-26 08:09 50.70268 5.68056 25033 ft 389 kts 297°
2026-04-26 08:09 50.71520 5.64273 24526 ft 388 kts 296°
2026-04-26 08:09 50.72746 5.60498 24024 ft 387 kts 296°
2026-04-26 08:09 50.73958 5.56715 23444 ft 385 kts 296°
2026-04-26 08:10 50.75160 5.52945 22909 ft 383 kts 296°
2026-04-26 08:10 50.76351 5.49210 22369 ft 380 kts 296°
2026-04-26 08:10 50.77534 5.45492 21797 ft 378 kts 296°
2026-04-26 08:10 50.78717 5.41761 21097 ft 380 kts 296°
2026-04-26 08:11 50.79897 5.38042 20548 ft 377 kts 296°
2026-04-26 08:11 50.81064 5.34364 20072 ft 372 kts 296°
2026-04-26 08:11 50.82220 5.30717 19550 ft 369 kts 296°
2026-04-26 08:11 50.82978 5.28322 19214 ft 367 kts 296°
2026-04-26 08:12 50.84114 5.24728 18711 ft 364 kts 296°
2026-04-26 08:12 50.85236 5.21155 18162 ft 360 kts 296°
2026-04-26 08:12 50.86349 5.17622 17661 ft 356 kts 296°
2026-04-26 08:12 50.87380 5.14098 17164 ft 351 kts 289°
2026-04-26 08:13 50.87860 5.10349 16684 ft 347 kts 276°
2026-04-26 08:13 50.88031 5.06570 16223 ft 343 kts 274°
2026-04-26 08:13 50.88169 5.02828 15771 ft 339 kts 274°
2026-04-26 08:13 50.88313 4.99125 15334 ft 335 kts 274°
2026-04-26 08:14 50.88462 4.95464 14908 ft 331 kts 275°
2026-04-26 08:14 50.88613 4.91850 14458 ft 328 kts 275°
2026-04-26 08:14 50.88767 4.88253 13997 ft 326 kts 275°
2026-04-26 08:14 50.88920 4.84693 13519 ft 322 kts 275°
2026-04-26 08:15 50.89072 4.81169 13077 ft 320 kts 275°
2026-04-26 08:15 50.89222 4.77659 12643 ft 319 kts 275°
2026-04-26 08:15 50.89370 4.74161 12195 ft 318 kts 275°
2026-04-26 08:15 50.89517 4.70676 11763 ft 315 kts 275°
2026-04-26 08:16 50.89659 4.67237 11343 ft 312 kts 275°
2026-04-26 08:16 50.89801 4.63823 10910 ft 310 kts 275°
2026-04-26 08:16 50.89940 4.60458 10656 ft 301 kts 276°
2026-04-26 08:16 50.90072 4.57207 10497 ft 291 kts 275°
2026-04-26 08:17 50.90211 4.54039 10211 ft 286 kts 277°
2026-04-26 08:17 50.90455 4.50931 9819 ft 283 kts 280°
2026-04-26 08:17 50.90736 4.47853 9397 ft 282 kts 280°
2026-04-26 08:17 50.91020 4.44778 8990 ft 281 kts 279°
2026-04-26 08:18 50.91139 4.41695 8571 ft 282 kts 266°
2026-04-26 08:18 50.90883 4.38624 8188 ft 281 kts 263°
2026-04-26 08:18 50.90583 4.35571 7803 ft 280 kts 263°
2026-04-26 08:18 50.90290 4.32529 7427 ft 279 kts 264°
2026-04-26 08:19 50.90005 4.29490 7074 ft 278 kts 263°
2026-04-26 08:19 50.89728 4.26471 6617 ft 276 kts 264°
2026-04-26 08:19 50.89456 4.23471 6130 ft 275 kts 263°
2026-04-26 08:19 50.89184 4.20490 5655 ft 272 kts 263°
2026-04-26 08:20 50.88916 4.17563 5360 ft 264 kts 264°
2026-04-26 08:20 50.88651 4.14774 5168 ft 254 kts 261°
2026-04-26 08:20 50.88044 4.12199 4873 ft 249 kts 237°
2026-04-26 08:20 50.86803 4.10378 4471 ft 243 kts 207°
2026-04-26 08:21 50.85195 4.09713 4083 ft 237 kts 178°
2026-04-26 08:21 50.83625 4.10225 3775 ft 229 kts 154°
2026-04-26 08:21 50.82250 4.11410 3525 ft 223 kts 139°
2026-04-26 08:21 50.81318 4.13294 3349 ft 217 kts 108°
2026-04-26 08:22 50.81154 4.15588 3217 ft 210 kts 77°
2026-04-26 08:22 50.81662 4.17732 3089 ft 209 kts 62°
2026-04-26 08:22 50.82331 4.19767 3003 ft 210 kts 62°
2026-04-26 08:22 50.82971 4.21828 2986 ft 208 kts 63°
2026-04-26 08:23 50.83582 4.23876 2989 ft 200 kts 64°
2026-04-26 08:23 50.84166 4.25873 2969 ft 200 kts 64°
2026-04-26 08:23 50.84741 4.27830 2771 ft 191 kts 64°
2026-04-26 08:23 50.85289 4.29707 2500 ft 187 kts 65°
2026-04-26 08:24 50.85822 4.31542 2194 ft 179 kts 65°
2026-04-26 08:24 50.86325 4.33279 1911 ft 169 kts 66°
2026-04-26 08:24 50.86799 4.34911 1674 ft 158 kts 66°
2026-04-26 08:24 50.87246 4.36443 1464 ft 151 kts 65°
2026-04-26 08:25 50.87666 4.37893 1277 ft 139 kts 66°
2026-04-26 08:25 50.88067 4.39278 1072 ft 138 kts 66°
2026-04-26 08:25 50.88468 4.40661 883 ft 138 kts 65°
2026-04-26 08:25 50.88867 4.42043 702 ft 137 kts 66°
2026-04-26 08:26 50.89264 4.43416 474 ft 137 kts 66°
2026-04-26 08:26 50.89666 4.44782 314 ft 137 kts 65°
2026-04-26 08:26 50.90061 4.46149 161 ft 136 kts 66°
2026-04-26 08:26 50.90412 4.47370 126 ft 99 kts 65°
2026-04-26 08:27 50.90624 4.48107 126 ft 49 kts 67°
2026-04-26 08:27 50.90639 4.48355 123 ft 15 kts 123°
2026-04-26 08:27 50.90600 4.48451 124 ft 5 kts 121°
2026-04-26 08:27 50.90599 4.48456 124 ft 0 kts 122°
2026-04-26 08:28 50.90579 4.48509 123 ft 10 kts 119°
2026-04-26 08:28 50.90535 4.48603 124 ft 11 kts 159°
2026-04-26 08:28 50.90479 4.48505 125 ft 15 kts 245°
2026-04-26 08:29 50.90448 4.48398 124 ft 6 kts 242°
2026-04-26 08:29 50.90409 4.48391 125 ft 6 kts 159°
2026-04-26 08:29 50.90378 4.48414 125 ft 3 kts 155°
2026-04-26 08:29 50.90362 4.48425 123 ft 2 kts 156°
2026-04-26 08:30 50.90360 4.48427 123 ft 0 kts 156°